| time (UTC) | temp F | wind direction | speed MPH | gust MPH | rain 1hr in | rain 24hr in | rain mn in | humidity % | barometer mb |
| 20260904071515 | 76 | 136 | 0.0 | 0.0 | 0.00 | 1.67 | 0.00 | 91 | 1011.9 |
| 20260904070059 | 76 | 136 | 0.0 | 0.0 | 0.00 | 1.67 | 0.00 | 91 | 1011.9 |
| 20260904064526 | 76 | 136 | 0.0 | 0.0 | 0.00 | 1.67 | 0.00 | 90 | 1012.0 |
| 20260904063101 | 77 | 136 | 0.0 | 0.0 | 0.00 | 1.67 | 0.00 | 90 | 1012.0 |
| 20260904061548 | 77 | 136 | 0.0 | 0.0 | 0.00 | 1.88 | 0.00 | 89 | 1012.0 |
| 20260904060014 | 77 | 136 | 0.0 | 0.0 | 0.00 | 1.88 | 0.00 | 88 | 1011.8 |
| 20260904054529 | 77 | 136 | 0.0 | 0.0 | 0.00 | 1.88 | 0.00 | 87 | 1011.8 |
| 20260904053028 | 78 | 136 | 0.0 | 0.0 | 0.00 | 1.88 | 0.00 | 86 | 1011.7 |
| 20260904051552 | 78 | 136 | 0.0 | 0.0 | 0.00 | 1.89 | 1.88 | 85 | 1011.7 |
| 20260904044510 | 79 | 136 | 0.0 | 0.0 | 0.00 | 1.89 | 1.88 | 83 | 1011.9 |
| 20260904043104 | 79 | 136 | 0.0 | 0.0 | 0.00 | 1.89 | 1.88 | 82 | 1012.0 |
| 20260904030115 | 81 | 130 | 0.0 | 0.0 | 0.00 | 2.27 | 1.88 | 78 | 1011.9 |
| 20260904014513 | 83 | 86 | 0.0 | 0.0 | 0.00 | 2.45 | 1.88 | 74 | 1011.0 |
| 20260903234647 | 90 | 269 | 0.0 | 2.0 | 0.00 | 2.45 | 1.88 | 62 | 1010.1 |
| 20260903211642 | 92 | 271 | 1.0 | 5.0 | 0.00 | 2.45 | 1.88 | 58 | 1010.8 |
| 20260903194627 | 91 | 113 | 0.0 | 4.0 | 0.00 | 2.45 | 1.88 | 63 | 1011.8 |
| 20260903193125 | 89 | 104 | 0.0 | 4.0 | 0.00 | 2.45 | 1.88 | 66 | 1012.0 |
| 20260903191518 | 88 | 62 | 0.0 | 5.0 | 0.00 | 2.45 | 1.88 | 68 | 1012.2 |
| 20260903183035 | 90 | 88 | 0.0 | 3.0 | 0.00 | 2.45 | 1.88 | 64 | 1012.9 |
| 20260903181644 | 89 | 108 | 0.0 | 3.0 | 0.00 | 2.45 | 1.88 | 68 | 1013.3 |
| 20260903180145 | 88 | 268 | 0.0 | 3.0 | 0.00 | 2.45 | 1.88 | 67 | 1013.5 |
| 20260903174503 | 88 | 63 | 0.0 | 4.0 | 0.00 | 2.45 | 1.88 | 66 | 1013.7 |
| 20260903160027 | 84 | 69 | 0.0 | 3.0 | 0.00 | 2.45 | 1.88 | 77 | 1014.0 |
| 20260903153120 | 83 | 150 | 0.0 | 2.0 | 0.00 | 2.45 | 1.88 | 82 | 1013.6 |
| 20260903143149 | 76 | 79 | 0.0 | 3.0 | 0.00 | 2.45 | 1.88 | 96 | 1013.7 |
| 20260903140104 | 74 | 284 | 0.0 | 2.0 | 0.00 | 2.45 | 1.88 | 96 | 1013.8 |
| 20260903104642 | 73 | 240 | 0.0 | 0.0 | 0.01 | 2.45 | 1.88 | 97 | 1012.5 |
| 20260903101546 | 73 | 16 | 0.0 | 2.0 | 0.10 | 2.45 | 1.88 | 96 | 1012.7 |
| 20260903094635 | 74 | 126 | 0.0 | 1.0 | 0.60 | 2.44 | 1.87 | 97 | 1012.7 |
| 20260903093049 | 73 | 88 | 0.0 | 0.0 | 0.66 | 2.44 | 1.87 | 97 | 1012.9 |
| 20260903091612 | 73 | 88 | 0.0 | 2.0 | 0.61 | 2.35 | 1.78 | 96 | 1012.8 |
| 20260903083053 | 73 | 72 | 0.0 | 2.0 | 0.12 | 1.78 | 1.21 | 96 | 1012.6 |
| 20260903081542 | 73 | 35 | 0.0 | 1.0 | 0.10 | 1.73 | 1.15 | 96 | 1012.6 |